Wotan — V2CA5 — position and weather

sailwx.info

Track history (hours):
 
Tides and Currents Weather Stations Pressure Air Temp Water Temp Dewpoint Dewpoint Depression Visibility Wind Speed Wind Dir Waves Ship Positions

Wotan

Last reported at 2014-Oct-31 04:27 UTC. Time now 2014-Nov-01 09:43 UTC.
Position N 66°31' E 012°58'.

Length 100 m; draft 3.9 m.

Type: Cargo ship. MMSI: 304195000.

Date/timePositionNaut miles runAvg speedWind from/ knotsBaromVisibWave heightAir tempDewpointWater temp
2014-Oct-31 04:27N 66°31' E 012°58'1011.4
2014-Oct-31 03:33N 66°21' E 012°57'1211.2
2014-Oct-31 02:31N 66°10' E 012°50'6 0.3
2014-Oct-30 02:33N 66°14' E 012°38'9 8.6
2014-Oct-30 01:33N 66°17' E 012°18'  
2014-Oct-27 09:31N 59°14' W 004°00'1010.1
2014-Oct-27 08:33N 59°06' W 004°11'1010.0
2014-Oct-27 07:33N 58°58' W 004°24'47 8.8
2014-Oct-27 02:13N 58°23' W 005°25'7 9.9
2014-Oct-27 01:33N 58°18' W 005°33'1010.3
2014-Oct-27 00:33N 58°10' W 005°43'1110.6
2014-Oct-26 23:33N 58°01' W 005°55'143 5.9
2014-Oct-25 23:16N 55°43' W 007°04'4 5.8
2014-Oct-25 22:33N 55°40' W 007°02'5 5.0
2014-Oct-25 21:33N 55°35' W 006°59'6 5.6
2014-Oct-25 20:33N 55°29' W 006°57'7 6.6
2014-Oct-25 19:31N 55°23' W 006°56'18 0.8
2014-Oct-24 19:32N 55°07' W 007°12'1110.3
2014-Oct-24 18:28N 55°13' W 006°56'8 9.2
2014-Oct-24 17:33N 55°17' W 006°43'9 9.0
2014-Oct-24 16:33N 55°22' W 006°29'9 9.5
2014-Oct-24 15:33N 55°26' W 006°14'1110.8
2014-Oct-24 14:33N 55°21' W 005°58'1414.0
2014-Oct-24 13:33N 55°09' W 005°45'1812.4
2014-Oct-24 12:06N 54°52' W 005°32'611.6
2014-Oct-24 11:34N 54°46' W 005°29'1111.5
2014-Oct-24 10:33N 54°35' W 005°24'1010.4
2014-Oct-24 09:33N 54°25' W 005°20'1010.2
2014-Oct-24 08:33N 54°15' W 005°22'117 9.7
2014-Oct-23 20:32N 52°19' W 005°51'2311.6
2014-Oct-23 18:34N 52°02' W 006°15'1211.6
2014-Oct-23 17:34N 52°01' W 006°34'1111.1
2014-Oct-23 16:33N 52°04' W 006°51'7 7.3
2014-Oct-23 15:34N 52°10' W 006°57'6 6.4
2014-Oct-23 14:34N 52°16' W 007°01'0 0.2
2014-Oct-23 12:34N 52°16' W 007°02'0 0.0
2014-Oct-23 11:34N 52°16' W 007°02'0 0.0
2014-Oct-23 10:34N 52°16' W 007°02'0 0.0
2014-Oct-23 09:25N 52°16' W 007°02'0 0.0
2014-Oct-23 08:34N 52°16' W 007°02'0 0.0
2014-Oct-23 07:30N 52°16' W 007°02'0 0.0
2014-Oct-23 06:24N 52°16' W 007°02'0 0.0
2014-Oct-23 05:34N 52°16' W 007°02'0 0.0
2014-Oct-23 04:34N 52°16' W 007°02'0 0.0
2014-Oct-23 03:33N 52°16' W 007°02'0 0.0
2014-Oct-23 02:34N 52°16' W 007°02'0 0.0
2014-Oct-23 01:34N 52°16' W 007°02'0 0.0
2014-Oct-23 00:34N 52°16' W 007°02'0 0.0
2014-Oct-22 23:34N 52°16' W 007°02'0 0.0
2014-Oct-22 22:34N 52°16' W 007°02'0 0.0
2014-Oct-22 21:22N 52°16' W 007°02'0 0.0
2014-Oct-22 20:34N 52°16' W 007°02'0 0.0
2014-Oct-22 19:16N 52°16' W 007°02'0 0.0
2014-Oct-22 18:33N 52°16' W 007°02'0 0.0
2014-Oct-22 17:30N 52°16' W 007°02'0 0.0
2014-Oct-22 16:28N 52°16' W 007°02'0 0.0
2014-Oct-22 15:34N 52°16' W 007°02'0 0.0
2014-Oct-22 14:34N 52°16' W 007°02'0 0.0
2014-Oct-22 13:27N 52°16' W 007°02'0 0.0
2014-Oct-22 12:33N 52°16' W 007°02'0 0.0
2014-Oct-22 11:33N 52°16' W 007°02'0 0.0
2014-Oct-22 10:33N 52°16' W 007°02'0 0.0
2014-Oct-22 09:31N 52°16' W 007°02'0 0.0
2014-Oct-22 08:33N 52°16' W 007°02'0 0.0
2014-Oct-22 07:27N 52°16' W 007°02'0 0.0
2014-Oct-22 06:34N 52°16' W 007°02'0 0.0
2014-Oct-22 05:34N 52°16' W 007°02'0 0.0
2014-Oct-22 04:34N 52°16' W 007°02'0 0.0
2014-Oct-22 03:34N 52°16' W 007°02'0 0.0
2014-Oct-22 02:28N 52°16' W 007°02'0 0.0
2014-Oct-22 01:34N 52°16' W 007°02'0 0.0
2014-Oct-22 00:34N 52°16' W 007°02'0 0.0
2014-Oct-21 23:34N 52°16' W 007°02'0 0.0
2014-Oct-21 22:33N 52°16' W 007°02'0 0.0
2014-Oct-21 21:25N 52°16' W 007°02'0 0.0
2014-Oct-21 20:25N 52°16' W 007°02'0 0.0
2014-Oct-21 19:27N 52°16' W 007°02'0 0.0
2014-Oct-21 18:31N 52°16' W 007°02'0 0.3
2014-Oct-21 17:33N 52°16' W 007°01'7 6.5
2014-Oct-21 16:33N 52°10' W 006°56'8 8.1
2014-Oct-21 15:33N 52°02' W 006°55'8 8.3
2014-Oct-21 14:33N 51°54' W 006°51'8 8.0
2014-Oct-21 13:33N 51°46' W 006°51'  
Track history (hours):
 
Tides and Currents Weather Stations Pressure Air Temp Water Temp Dewpoint Dewpoint Depression Visibility Wind Speed Wind Dir Waves Ship Positions

Wotan

Last reported at 2014-Oct-31 04:27 UTC. Time now 2014-Nov-01 09:43 UTC.
Position N 66°31' E 012°58'.

Length 100 m; draft 3.9 m.

Type: Cargo ship. MMSI: 304195000.

Date/timePositionNaut miles runAvg speedWind from/ knotsBaromVisibWave heightAir tempDewpointWater temp
2014-Oct-31 04:27N 66°31' E 012°58'1011.4
2014-Oct-31 03:33N 66°21' E 012°57'1211.2
2014-Oct-31 02:31N 66°10' E 012°50'6 0.3
2014-Oct-30 02:33N 66°14' E 012°38'9 8.6
2014-Oct-30 01:33N 66°17' E 012°18'  
2014-Oct-27 09:31N 59°14' W 004°00'1010.1
2014-Oct-27 08:33N 59°06' W 004°11'1010.0
2014-Oct-27 07:33N 58°58' W 004°24'47 8.8
2014-Oct-27 02:13N 58°23' W 005°25'7 9.9
2014-Oct-27 01:33N 58°18' W 005°33'1010.3
2014-Oct-27 00:33N 58°10' W 005°43'1110.6
2014-Oct-26 23:33N 58°01' W 005°55'143 5.9
2014-Oct-25 23:16N 55°43' W 007°04'4 5.8
2014-Oct-25 22:33N 55°40' W 007°02'5 5.0
2014-Oct-25 21:33N 55°35' W 006°59'6 5.6
2014-Oct-25 20:33N 55°29' W 006°57'7 6.6
2014-Oct-25 19:31N 55°23' W 006°56'18 0.8
2014-Oct-24 19:32N 55°07' W 007°12'1110.3
2014-Oct-24 18:28N 55°13' W 006°56'8 9.2
2014-Oct-24 17:33N 55°17' W 006°43'9 9.0
2014-Oct-24 16:33N 55°22' W 006°29'9 9.5
2014-Oct-24 15:33N 55°26' W 006°14'1110.8
2014-Oct-24 14:33N 55°21' W 005°58'1414.0
2014-Oct-24 13:33N 55°09' W 005°45'1812.4
2014-Oct-24 12:06N 54°52' W 005°32'611.6
2014-Oct-24 11:34N 54°46' W 005°29'1111.5
2014-Oct-24 10:33N 54°35' W 005°24'1010.4
2014-Oct-24 09:33N 54°25' W 005°20'1010.2
2014-Oct-24 08:33N 54°15' W 005°22'117 9.7
2014-Oct-23 20:32N 52°19' W 005°51'2311.6
2014-Oct-23 18:34N 52°02' W 006°15'1211.6
2014-Oct-23 17:34N 52°01' W 006°34'1111.1
2014-Oct-23 16:33N 52°04' W 006°51'7 7.3
2014-Oct-23 15:34N 52°10' W 006°57'6 6.4
2014-Oct-23 14:34N 52°16' W 007°01'0 0.2
2014-Oct-23 12:34N 52°16' W 007°02'0 0.0
2014-Oct-23 11:34N 52°16' W 007°02'0 0.0
2014-Oct-23 10:34N 52°16' W 007°02'0 0.0
2014-Oct-23 09:25N 52°16' W 007°02'0 0.0
2014-Oct-23 08:34N 52°16' W 007°02'0 0.0
2014-Oct-23 07:30N 52°16' W 007°02'0 0.0
2014-Oct-23 06:24N 52°16' W 007°02'0 0.0
2014-Oct-23 05:34N 52°16' W 007°02'0 0.0
2014-Oct-23 04:34N 52°16' W 007°02'0 0.0
2014-Oct-23 03:33N 52°16' W 007°02'0 0.0
2014-Oct-23 02:34N 52°16' W 007°02'0 0.0
2014-Oct-23 01:34N 52°16' W 007°02'0 0.0
2014-Oct-23 00:34N 52°16' W 007°02'0 0.0
2014-Oct-22 23:34N 52°16' W 007°02'0 0.0
2014-Oct-22 22:34N 52°16' W 007°02'0 0.0
2014-Oct-22 21:22N 52°16' W 007°02'0 0.0
2014-Oct-22 20:34N 52°16' W 007°02'0 0.0
2014-Oct-22 19:16N 52°16' W 007°02'0 0.0
2014-Oct-22 18:33N 52°16' W 007°02'0 0.0
2014-Oct-22 17:30N 52°16' W 007°02'0 0.0
2014-Oct-22 16:28N 52°16' W 007°02'0 0.0
2014-Oct-22 15:34N 52°16' W 007°02'0 0.0
2014-Oct-22 14:34N 52°16' W 007°02'0 0.0
2014-Oct-22 13:27N 52°16' W 007°02'0 0.0
2014-Oct-22 12:33N 52°16' W 007°02'0 0.0
2014-Oct-22 11:33N 52°16' W 007°02'0 0.0
2014-Oct-22 10:33N 52°16' W 007°02'0 0.0
2014-Oct-22 09:31N 52°16' W 007°02'0 0.0
2014-Oct-22 08:33N 52°16' W 007°02'0 0.0
2014-Oct-22 07:27N 52°16' W 007°02'0 0.0
2014-Oct-22 06:34N 52°16' W 007°02'0 0.0
2014-Oct-22 05:34N 52°16' W 007°02'0 0.0
2014-Oct-22 04:34N 52°16' W 007°02'0 0.0
2014-Oct-22 03:34N 52°16' W 007°02'0 0.0
2014-Oct-22 02:28N 52°16' W 007°02'0 0.0
2014-Oct-22 01:34N 52°16' W 007°02'0 0.0
2014-Oct-22 00:34N 52°16' W 007°02'0 0.0
2014-Oct-21 23:34N 52°16' W 007°02'0 0.0
2014-Oct-21 22:33N 52°16' W 007°02'0 0.0
2014-Oct-21 21:25N 52°16' W 007°02'0 0.0
2014-Oct-21 20:25N 52°16' W 007°02'0 0.0
2014-Oct-21 19:27N 52°16' W 007°02'0 0.0
2014-Oct-21 18:31N 52°16' W 007°02'0 0.3
2014-Oct-21 17:33N 52°16' W 007°01'7 6.5
2014-Oct-21 16:33N 52°10' W 006°56'8 8.1
2014-Oct-21 15:33N 52°02' W 006°55'8 8.3
2014-Oct-21 14:33N 51°54' W 006°51'8 8.0
2014-Oct-21 13:33N 51°46' W 006°51'  

Dump ship's entire track history